Tracking 30743 objects as of 22-Jun-2025
HD Live streaming from Space Station
objects crossing your sky now

STARLINK-2540

Track STARLINK-2540 now!
10-day predictions
STARLINK-2540 is classified as:


NORAD ID: 48290
Int'l Code: 2021-036Q
Perigee: 553.6 km
Apogee: 555.1 km
Inclination: 53.1 °
Period: 95.6 minutes
Semi major axis: 6925 km
RCS: Unknown
Launch date: April 29, 2021
Source: United States (US)
Launch site: AIR FORCE EASTERN TEST RANGE (AFETR)
Your satellite tracking list
Your tracking list is empty




NASA's NSSDC Master Catalog

Two Line Element Set (TLE):
1 48290U 21036Q   25173.42649291  .00000663  00000-0  63432-4 0  9997
2 48290  53.0535 169.9850 0001109  74.5912 285.5199 15.06394351229080
Source of the keplerian elements: AFSPC